Tracking 19634 objects as of 21-May-2019
HD Live streaming from Space Station
objects crossing your sky now

COSMOS 590

Track COSMOS 590 now!
10-day predictions
COSMOS 590 is classified as:


NORAD ID: 6847
Int'l Code: 1973-069C
Perigee: 1,439.8 km
Apogee: 1,494.6 km
Inclination: 74.0 °
Period: 115.1 minutes
Semi major axis: 7838 km
RCS: 0.7061 m2 (medium)
Launch date: October 2, 1973
Source: Commonwealth of Independent States (former USSR) (CIS)
Launch site: PLESETSK MISSILE AND SPACE COMPLEX (PKMTR)
aabbcc
Your satellite tracking list
Your tracking list is empty




NASA's NSSDC Master Catalog

Two Line Element Set (TLE):
1  6847U 73069C   19141.24534293 -.00000020  00000-0 -27155-4 0  9996
2  6847  74.0018  80.1499 0034932 280.4773 231.6725 12.51066652 84169
Source of the keplerian elements: AFSPC